Regional Weather Roundup
Issued by NWS

Home | Current Version | Previous Version | Text Only | Print | Product List | Glossary Off
Versions: 1 2 3 4 5 6 7 8 9 10 11 12 13 14 15 16 17 18 19 20 21 22 23 24 25 26 27 28 29 30 31 32 33 34 35 36 37 38 39 40 41 42 43 44 45 46 47 48 49 50

000
ASUS43 KBIS 221402
RWRND

NORTH DAKOTA REGIONAL WEATHER ROUNDUP
NATIONAL WEATHER SERVICE BISMARCK ND
800 AM CST SUN JAN 22 2017

NOTE: "FAIR" INDICATES FEW OR NO CLOUDS BELOW 12,000 FEET WITH NO
SIGNIFICANT WEATHER AND/OR OBSTRUCTIONS TO VISIBILITY.


NDZ001>003-009>011-017-221500-
NORTHWEST NORTH DAKOTA

CITY           SKY/WX    TMP DP  RH WIND       PRES   REMARKS
WILLISTON      CLOUDY    29  26  89 W12       29.76R WCI  19
MINOT          CLOUDY    31  26  82 W16       29.69R WCI  20
$$

NDZ018>021-031>035-040>046-221500-
SOUTHWEST NORTH DAKOTA

CITY           SKY/WX    TMP DP  RH WIND       PRES   REMARKS
BISMARCK       CLOUDY    28  26  92 W9        29.75R WCI  19
DICKINSON      CLOUDY    23  21  92 W13       29.73R FOG     WCI  11
GARRISON         N/A     29  28  96 W10       29.71R WCI  20
HETTINGER ARPT CLOUDY    21  18  88 NW18      29.77R FOG     WCI   6
$$

NDZ004>008-012>016-024-026-027-054-221500-
NORTHEAST NORTH DAKOTA

CITY           SKY/WX    TMP DP  RH WIND       PRES   REMARKS
GRAND FORKS    CLOUDY    34  31  88 W6        29.68R FOG
DEVILS LAKE    CLOUDY    29  27  92 NW12      29.67R FOG     WCI  19
$$

NDZ022-023-025-028>030-036>039-047>053-221500-
SOUTHEAST NORTH DAKOTA

CITY           SKY/WX    TMP DP  RH WIND       PRES   REMARKS
FARGO          CLOUDY    35  33  92 NW6       29.70R
JAMESTOWN      CLOUDY    30  28  92 W9        29.68S FOG
$$





USA.gov is the U.S. government's official web portal to all federal, state and local government web resources and services.